Time,TemperatureF,DewpointF,PressureIn,WindDirection,WindDirectionDegrees,WindSpeedMPH,WindSpeedGustMPH,Humidity,HourlyPrecipIn,Conditions,Clouds,dailyrainin,SoftwareType,DateUTC
2013-02-08 00:03:00,42.1,41.8,29.92,NE,49,0.0,0.0,99,0.12,,,0.49,LWC V2.00 B2112,2013-02-08 05:03:00,
2013-02-08 00:08:00,42.1,41.8,29.91,NNE,18,0.0,0.0,99,0.13,,,0.50,LWC V2.00 B2112,2013-02-08 05:08:00,
2013-02-08 00:13:00,42.2,41.9,29.91,ENE,68,0.0,0.0,99,0.12,,,0.51,LWC V2.00 B2112,2013-02-08 05:13:00,
2013-02-08 00:18:00,42.2,41.9,29.91,ENE,71,0.0,0.0,99,0.12,,,0.52,LWC V2.00 B2112,2013-02-08 05:18:00,
2013-02-08 00:23:00,42.2,41.9,29.90,ENE,71,0.0,0.0,99,0.11,,,0.00,LWC V2.00 B2112,2013-02-08 05:23:00,
2013-02-08 00:28:00,42.2,41.9,29.90,ENE,71,0.0,0.0,99,0.08,,,0.00,LWC V2.00 B2112,2013-02-08 05:28:00,
2013-02-08 00:33:00,42.2,41.9,29.90,ENE,62,0.0,0.0,99,0.07,,,0.01,LWC V2.00 B2112,2013-02-08 05:33:00,
2013-02-08 00:38:00,42.2,41.9,29.90,North,1,0.0,2.0,99,0.11,,,0.02,LWC V2.00 B2112,2013-02-08 05:38:00,
2013-02-08 00:43:00,42.2,41.9,29.90,ESE,117,0.0,0.0,99,0.11,,,0.03,LWC V2.00 B2112,2013-02-08 05:43:00,
2013-02-08 00:48:00,42.3,42.0,29.90,North,11,0.0,2.0,99,0.13,,,0.04,LWC V2.00 B2112,2013-02-08 05:48:00,
2013-02-08 00:53:00,42.3,42.0,29.89,North,11,0.0,0.0,99,0.10,,,0.05,LWC V2.00 B2112,2013-02-08 05:53:00,
2013-02-08 00:58:00,42.3,42.0,29.89,North,11,0.0,0.0,99,0.10,,,0.06,LWC V2.00 B2112,2013-02-08 05:58:00,
2013-02-08 01:03:00,42.3,42.0,29.89,North,11,0.0,0.0,99,0.08,,,0.06,LWC V2.00 B2112,2013-02-08 06:03:00,
2013-02-08 01:08:00,42.2,41.9,29.88,North,11,0.0,0.0,99,0.15,,,0.08,LWC V2.00 B2112,2013-02-08 06:08:00,
2013-02-08 01:13:00,42.2,41.9,29.88,North,11,0.0,0.0,99,0.14,,,0.09,LWC V2.00 B2112,2013-02-08 06:13:00,
2013-02-08 01:18:00,42.2,41.9,29.88,East,87,0.0,0.0,99,0.17,,,0.10,LWC V2.00 B2112,2013-02-08 06:18:00,
2013-02-08 01:23:00,42.2,41.9,29.86,ESE,108,0.0,0.0,99,0.10,,,0.11,LWC V2.00 B2112,2013-02-08 06:23:00,
2013-02-08 01:28:00,42.2,41.9,29.86,NE,37,0.0,0.0,99,0.15,,,0.12,LWC V2.00 B2112,2013-02-08 06:28:00,
2013-02-08 01:33:00,42.1,41.8,29.86,SSE,158,0.0,0.0,99,0.11,,,0.13,LWC V2.00 B2112,2013-02-08 06:33:00,
2013-02-08 01:38:00,42.1,41.8,29.84,NE,47,0.0,0.0,99,0.12,,,0.14,LWC V2.00 B2112,2013-02-08 06:38:00,
2013-02-08 01:43:00,42.1,41.8,29.84,ENE,61,0.0,0.0,99,0.20,,,0.15,LWC V2.00 B2112,2013-02-08 06:43:00,
2013-02-08 01:48:00,41.9,41.6,29.84,NNE,23,0.0,0.0,99,0.11,,,0.16,LWC V2.00 B2112,2013-02-08 06:48:00,
2013-02-08 01:53:00,41.9,41.6,29.83,NW,314,2.0,5.0,99,0.15,,,0.17,LWC V2.00 B2112,2013-02-08 06:53:00,
2013-02-08 01:58:00,41.9,41.6,29.83,ESE,119,0.0,3.0,99,0.21,,,0.18,LWC V2.00 B2112,2013-02-08 06:58:00,
2013-02-08 02:03:00,41.9,41.6,29.83,SW,215,0.0,0.0,99,0.14,,,0.20,LWC V2.00 B2112,2013-02-08 07:03:00,
2013-02-08 02:08:00,41.9,41.6,29.83,NNW,338,0.0,0.0,99,0.18,,,0.21,LWC V2.00 B2112,2013-02-08 07:08:00,
2013-02-08 02:13:00,41.8,41.5,29.83,NNE,29,0.0,0.0,99,0.21,,,0.23,LWC V2.00 B2112,2013-02-08 07:13:00,
2013-02-08 02:18:00,41.8,41.5,29.83,NE,53,0.0,0.0,99,0.16,,,0.24,LWC V2.00 B2112,2013-02-08 07:18:00,
2013-02-08 02:23:00,41.6,41.3,29.81,NNE,15,0.0,0.0,99,0.23,,,0.26,LWC V2.00 B2112,2013-02-08 07:23:00,
2013-02-08 02:28:00,41.6,41.3,29.81,ENE,74,0.0,0.0,99,0.16,,,0.28,LWC V2.00 B2112,2013-02-08 07:28:00,
2013-02-08 02:33:00,41.6,41.3,29.81,NE,46,0.0,0.0,99,0.17,,,0.29,LWC V2.00 B2112,2013-02-08 07:33:00,
2013-02-08 02:38:00,41.5,41.2,29.81,NNW,330,0.0,0.0,99,0.10,,,0.30,LWC V2.00 B2112,2013-02-08 07:38:00,
2013-02-08 02:43:00,41.5,41.2,29.81,ENE,65,0.0,0.0,99,0.13,,,0.31,LWC V2.00 B2112,2013-02-08 07:43:00,
2013-02-08 02:48:00,41.3,41.0,29.81,North,9,0.0,0.0,99,0.15,,,0.32,LWC V2.00 B2112,2013-02-08 07:48:00,
2013-02-08 02:53:00,41.3,41.0,29.81,WNW,282,4.0,7.0,99,0.13,,,0.33,LWC V2.00 B2112,2013-02-08 07:53:00,
2013-02-08 02:58:00,41.3,41.0,29.81,North,7,0.0,0.0,99,0.08,,,0.33,LWC V2.00 B2112,2013-02-08 07:58:00,
2013-02-08 03:03:00,41.2,40.9,29.81,ENE,76,0.0,0.0,99,0.08,,,0.34,LWC V2.00 B2112,2013-02-08 08:03:00,
2013-02-08 03:08:00,41.2,40.9,29.80,ENE,76,0.0,4.0,99,0.11,,,0.35,LWC V2.00 B2112,2013-02-08 08:08:00,
2013-02-08 03:13:00,41.2,40.9,29.80,North,359,0.0,3.0,99,0.16,,,0.36,LWC V2.00 B2112,2013-02-08 08:13:00,
2013-02-08 03:18:00,41.1,40.8,29.80,NE,42,0.0,0.0,99,0.12,,,0.37,LWC V2.00 B2112,2013-02-08 08:18:00,
2013-02-08 03:23:00,41.1,40.8,29.79,NE,44,0.0,0.0,99,0.18,,,0.39,LWC V2.00 B2112,2013-02-08 08:23:00,
2013-02-08 03:28:00,41.1,40.8,29.79,North,359,0.0,0.0,99,0.16,,,0.40,LWC V2.00 B2112,2013-02-08 08:28:00,
2013-02-08 03:33:00,41.1,40.8,29.79,NNW,340,0.0,0.0,99,0.13,,,0.41,LWC V2.00 B2112,2013-02-08 08:33:00,
2013-02-08 03:38:00,40.9,40.6,29.78,East,91,0.0,5.0,99,0.07,,,0.41,LWC V2.00 B2112,2013-02-08 08:38:00,
2013-02-08 03:43:00,40.9,40.6,29.78,North,1,0.0,0.0,99,0.07,,,0.42,LWC V2.00 B2112,2013-02-08 08:43:00,
2013-02-08 03:48:00,40.9,40.6,29.78,NNE,31,0.0,0.0,99,0.07,,,0.42,LWC V2.00 B2112,2013-02-08 08:48:00,
2013-02-08 03:53:00,40.8,40.5,29.77,NNE,23,0.0,0.0,99,0.06,,,0.43,LWC V2.00 B2112,2013-02-08 08:53:00,
2013-02-08 03:58:00,40.8,40.5,29.77,ESE,103,0.0,0.0,99,0.07,,,0.44,LWC V2.00 B2112,2013-02-08 08:58:00,
2013-02-08 04:03:00,40.8,40.5,29.77,ESE,115,0.0,2.0,99,0.07,,,0.44,LWC V2.00 B2112,2013-02-08 09:03:00,
2013-02-08 04:08:00,40.8,40.5,29.75,NNW,345,0.0,0.0,99,0.06,,,0.45,LWC V2.00 B2112,2013-02-08 09:08:00,
2013-02-08 04:13:00,40.8,40.5,29.75,NNW,343,0.0,0.0,99,0.06,,,0.45,LWC V2.00 B2112,2013-02-08 09:13:00,
2013-02-08 04:18:00,40.8,40.5,29.75,North,11,0.0,0.0,99,0.05,,,0.45,LWC V2.00 B2112,2013-02-08 09:18:00,
2013-02-08 04:23:00,40.8,40.5,29.75,NNE,27,0.0,0.0,99,0.04,,,0.46,LWC V2.00 B2112,2013-02-08 09:23:00,
2013-02-08 04:28:00,40.8,40.5,29.75,NW,321,0.0,0.0,99,0.04,,,0.46,LWC V2.00 B2112,2013-02-08 09:28:00,
2013-02-08 04:33:00,40.8,40.5,29.75,ENE,65,0.0,0.0,99,0.04,,,0.46,LWC V2.00 B2112,2013-02-08 09:33:00,
2013-02-08 04:38:00,40.8,40.5,29.74,NW,321,0.0,10.0,99,0.04,,,0.46,LWC V2.00 B2112,2013-02-08 09:38:00,
2013-02-08 04:43:00,40.8,40.5,29.74,North,358,0.0,5.0,99,0.00,,,0.46,LWC V2.00 B2112,2013-02-08 09:43:00,
2013-02-08 04:48:00,40.6,40.3,29.74,North,353,0.0,0.0,99,0.00,,,0.46,LWC V2.00 B2112,2013-02-08 09:48:00,
2013-02-08 04:53:00,40.6,40.3,29.73,North,9,0.0,0.0,99,0.00,,,0.46,LWC V2.00 B2112,2013-02-08 09:53:00,
2013-02-08 04:58:00,40.6,40.3,29.73,North,1,0.0,0.0,99,0.00,,,0.46,LWC V2.00 B2112,2013-02-08 09:58:00,
2013-02-08 05:03:00,40.6,40.3,29.73,NE,56,0.0,0.0,99,0.00,,,0.46,LWC V2.00 B2112,2013-02-08 10:03:00,
2013-02-08 05:08:00,40.6,40.3,29.72,NNE,12,0.0,0.0,99,0.00,,,0.46,LWC V2.00 B2112,2013-02-08 10:08:00,
2013-02-08 05:13:00,40.6,40.3,29.72,North,4,0.0,0.0,99,0.00,,,0.46,LWC V2.00 B2112,2013-02-08 10:13:00,
2013-02-08 05:18:00,40.6,40.3,29.72,North,359,0.0,4.0,99,0.00,,,0.46,LWC V2.00 B2112,2013-02-08 10:18:00,
2013-02-08 05:23:00,40.6,40.3,29.72,NW,321,0.0,5.0,99,0.00,,,0.46,LWC V2.00 B2112,2013-02-08 10:23:00,
2013-02-08 05:28:00,40.6,40.3,29.72,NNE,13,0.0,5.0,99,0.00,,,0.47,LWC V2.00 B2112,2013-02-08 10:28:00,
2013-02-08 05:33:00,40.6,40.3,29.72,North,349,0.0,1.0,99,0.00,,,0.47,LWC V2.00 B2112,2013-02-08 10:33:00,
2013-02-08 05:38:00,40.6,40.3,29.74,North,350,0.0,0.0,99,0.00,,,0.47,LWC V2.00 B2112,2013-02-08 10:38:00,
2013-02-08 05:43:00,40.6,40.3,29.74,NNW,332,0.0,0.0,99,0.00,,,0.47,LWC V2.00 B2112,2013-02-08 10:43:00,
2013-02-08 05:48:00,40.6,40.1,29.74,North,0,0.0,13.0,98,0.00,,,0.47,LWC V2.00 B2112,2013-02-08 10:48:00,
2013-02-08 05:53:00,40.6,40.1,29.72,ENE,58,0.0,1.0,98,0.00,,,0.47,LWC V2.00 B2112,2013-02-08 10:53:00,
2013-02-08 05:58:00,40.5,40.0,29.72,West,281,0.0,1.0,98,0.00,,,0.47,LWC V2.00 B2112,2013-02-08 10:58:00,
2013-02-08 06:03:00,40.5,40.0,29.72,NNW,346,0.0,0.0,98,0.00,,,0.47,LWC V2.00 B2112,2013-02-08 11:03:00,
2013-02-08 06:08:00,40.5,40.0,29.73,WNW,301,3.0,10.0,98,0.00,,,0.47,LWC V2.00 B2112,2013-02-08 11:08:00,
2013-02-08 06:13:00,40.5,40.0,29.73,WNW,301,0.0,9.0,98,0.00,,,0.47,LWC V2.00 B2112,2013-02-08 11:13:00,
2013-02-08 06:18:00,40.3,39.8,29.73,NW,307,0.0,2.0,98,0.00,,,0.47,LWC V2.00 B2112,2013-02-08 11:18:00,
2013-02-08 06:23:00,40.3,39.8,29.73,NW,320,2.0,3.0,98,0.00,,,0.47,LWC V2.00 B2112,2013-02-08 11:23:00,
2013-02-08 06:28:00,40.3,39.8,29.73,NW,305,0.0,4.0,98,0.00,,,0.47,LWC V2.00 B2112,2013-02-08 11:28:00,
2013-02-08 06:33:00,40.3,39.8,29.73,North,356,0.0,2.0,98,0.00,,,0.47,LWC V2.00 B2112,2013-02-08 11:33:00,
2013-02-08 06:38:00,40.2,39.7,29.73,WNW,297,2.0,5.0,98,0.00,,,0.47,LWC V2.00 B2112,2013-02-08 11:38:00,
2013-02-08 06:43:00,40.2,39.7,29.73,West,266,0.0,9.0,98,0.00,,,0.48,LWC V2.00 B2112,2013-02-08 11:43:00,
2013-02-08 06:48:00,40.2,39.7,29.73,NW,307,0.0,1.0,98,0.00,,,0.48,LWC V2.00 B2112,2013-02-08 11:48:00,
2013-02-08 06:53:00,40.2,39.7,29.73,WNW,293,1.0,3.0,98,0.00,,,0.48,LWC V2.00 B2112,2013-02-08 11:53:00,
2013-02-08 06:58:00,40.2,39.7,29.73,WNW,294,1.0,1.0,98,0.00,,,0.48,LWC V2.00 B2112,2013-02-08 11:58:00,
2013-02-08 07:03:00,40.1,39.6,29.73,North,359,0.0,0.0,98,0.00,,,0.48,LWC V2.00 B2112,2013-02-08 12:03:00,
2013-02-08 07:08:00,40.1,39.6,29.73,NNE,24,0.0,0.0,98,0.00,,,0.48,LWC V2.00 B2112,2013-02-08 12:08:00,
2013-02-08 07:13:00,40.1,39.6,29.73,NNW,345,0.0,1.0,98,0.00,,,0.48,LWC V2.00 B2112,2013-02-08 12:13:00,
2013-02-08 07:18:00,39.9,39.4,29.73,NNE,20,0.0,4.0,98,0.00,,,0.48,LWC V2.00 B2112,2013-02-08 12:18:00,
2013-02-08 07:23:00,39.9,39.4,29.74,North,356,0.0,0.0,98,0.00,,,0.48,LWC V2.00 B2112,2013-02-08 12:23:00,
2013-02-08 07:28:00,39.9,39.4,29.74,North,359,0.0,0.0,98,0.00,,,0.48,LWC V2.00 B2112,2013-02-08 12:28:00,
2013-02-08 07:33:00,39.8,39.3,29.74,WNW,300,3.0,5.0,98,0.00,,,0.48,LWC V2.00 B2112,2013-02-08 12:33:00,
2013-02-08 07:38:00,39.6,39.1,29.74,North,0,0.0,5.0,98,0.00,,,0.48,LWC V2.00 B2112,2013-02-08 12:38:00,
2013-02-08 07:43:00,39.3,38.8,29.74,WNW,297,2.0,7.0,98,0.00,,,0.48,LWC V2.00 B2112,2013-02-08 12:43:00,
2013-02-08 07:48:00,39.1,38.6,29.74,North,359,0.0,6.0,98,0.00,,,0.48,LWC V2.00 B2112,2013-02-08 12:48:00,
2013-02-08 07:53:00,38.8,38.3,29.75,North,358,0.0,0.0,98,0.00,,,0.48,LWC V2.00 B2112,2013-02-08 12:53:00,
2013-02-08 07:58:00,38.6,38.1,29.75,WNW,302,0.0,3.0,98,0.00,,,0.48,LWC V2.00 B2112,2013-02-08 12:58:00,
2013-02-08 08:03:00,38.5,38.0,29.75,NW,307,0.0,0.0,98,0.00,,,0.48,LWC V2.00 B2112,2013-02-08 13:03:00,
2013-02-08 08:08:00,38.3,37.5,29.76,NNE,17,1.0,1.0,97,0.00,,,0.48,LWC V2.00 B2112,2013-02-08 13:08:00,
2013-02-08 08:13:00,38.2,37.4,29.76,North,11,0.0,2.0,97,0.00,,,0.48,LWC V2.00 B2112,2013-02-08 13:13:00,
2013-02-08 08:18:00,38.2,37.4,29.76,NNW,346,0.0,3.0,97,0.00,,,0.48,LWC V2.00 B2112,2013-02-08 13:18:00,
2013-02-08 08:23:00,38.0,37.5,29.76,WNW,292,0.0,0.0,98,0.00,,,0.48,LWC V2.00 B2112,2013-02-08 13:23:00,
2013-02-08 08:28:00,38.0,37.5,29.76,NNW,335,0.0,0.0,98,0.00,,,0.48,LWC V2.00 B2112,2013-02-08 13:28:00,
2013-02-08 08:33:00,38.0,37.5,29.76,WNW,302,0.0,2.0,98,0.00,,,0.48,LWC V2.00 B2112,2013-02-08 13:33:00,
2013-02-08 08:38:00,38.0,37.2,29.76,WNW,296,0.0,2.0,97,0.00,,,0.48,LWC V2.00 B2112,2013-02-08 13:38:00,
2013-02-08 08:43:00,38.0,37.2,29.76,NW,309,0.0,0.0,97,0.00,,,0.48,LWC V2.00 B2112,2013-02-08 13:43:00,
2013-02-08 08:48:00,38.2,37.7,29.76,WNW,302,0.0,0.0,98,0.00,,,0.48,LWC V2.00 B2112,2013-02-08 13:48:00,
2013-02-08 08:53:00,38.2,37.4,29.76,North,0,0.0,6.0,97,0.00,,,0.48,LWC V2.00 B2112,2013-02-08 13:53:00,
2013-02-08 08:58:00,38.2,37.4,29.76,WNW,286,0.0,0.0,97,0.00,,,0.48,LWC V2.00 B2112,2013-02-08 13:58:00,
2013-02-08 09:03:00,38.3,37.5,29.76,North,6,0.0,2.0,97,0.00,,,0.48,LWC V2.00 B2112,2013-02-08 14:03:00,
2013-02-08 09:08:00,38.3,37.5,29.76,North,355,0.0,2.0,97,0.00,,,0.48,LWC V2.00 B2112,2013-02-08 14:08:00,
2013-02-08 09:13:00,38.3,37.5,29.76,WNW,299,0.0,0.0,97,0.00,,,0.48,LWC V2.00 B2112,2013-02-08 14:13:00,
2013-02-08 09:18:00,38.3,37.5,29.76,NW,304,1.0,3.0,97,0.00,,,0.48,LWC V2.00 B2112,2013-02-08 14:18:00,
2013-02-08 09:23:00,38.3,37.5,29.76,NNE,20,1.0,2.0,97,0.00,,,0.48,LWC V2.00 B2112,2013-02-08 14:23:00,
2013-02-08 09:28:00,38.3,37.5,29.76,NW,307,0.0,3.0,97,0.00,,,0.48,LWC V2.00 B2112,2013-02-08 14:28:00,
2013-02-08 09:33:00,38.5,37.7,29.76,NW,316,0.0,0.0,97,0.00,,,0.48,LWC V2.00 B2112,2013-02-08 14:33:00,
2013-02-08 09:38:00,38.5,37.7,29.77,WNW,290,2.0,4.0,97,0.00,,,0.48,LWC V2.00 B2112,2013-02-08 14:38:00,
2013-02-08 09:43:00,38.5,37.7,29.77,WNW,300,0.0,0.0,97,0.00,,,0.48,LWC V2.00 B2112,2013-02-08 14:43:00,
2013-02-08 09:48:00,38.6,37.8,29.77,NW,326,0.0,5.0,97,0.00,,,0.48,LWC V2.00 B2112,2013-02-08 14:48:00,
2013-02-08 09:53:00,38.8,38.0,29.77,West,269,0.0,0.0,97,0.00,,,0.48,LWC V2.00 B2112,2013-02-08 14:53:00,
2013-02-08 09:58:00,38.8,38.0,29.77,WNW,302,1.0,4.0,97,0.00,,,0.48,LWC V2.00 B2112,2013-02-08 14:58:00,
2013-02-08 10:03:00,38.8,38.0,29.77,NW,309,0.0,5.0,97,0.00,,,0.48,LWC V2.00 B2112,2013-02-08 15:03:00,
2013-02-08 10:08:00,38.9,38.1,29.76,WNW,303,0.0,3.0,97,0.00,,,0.48,LWC V2.00 B2112,2013-02-08 15:08:00,
2013-02-08 10:13:00,39.1,38.3,29.76,NW,311,0.0,3.0,97,0.00,,,0.48,LWC V2.00 B2112,2013-02-08 15:13:00,
2013-02-08 10:18:00,39.2,38.2,29.76,WNW,303,0.0,0.0,96,0.00,,,0.48,LWC V2.00 B2112,2013-02-08 15:18:00,
2013-02-08 10:23:00,39.5,38.5,29.77,WNW,300,3.0,5.0,96,0.00,,,0.48,LWC V2.00 B2112,2013-02-08 15:23:00,
2013-02-08 10:28:00,39.3,38.3,29.77,NNW,347,2.0,5.0,96,0.00,,,0.48,LWC V2.00 B2112,2013-02-08 15:28:00,
2013-02-08 10:33:00,39.5,38.5,29.77,WNW,297,0.0,0.0,96,0.00,,,0.48,LWC V2.00 B2112,2013-02-08 15:33:00,
2013-02-08 10:38:00,39.8,38.8,29.78,North,359,0.0,0.0,96,0.00,,,0.48,LWC V2.00 B2112,2013-02-08 15:38:00,
2013-02-08 10:43:00,40.2,39.2,29.78,WNW,288,0.0,0.0,96,0.00,,,0.48,LWC V2.00 B2112,2013-02-08 15:43:00,
2013-02-08 10:48:00,40.6,39.5,29.78,West,276,0.0,0.0,96,0.00,,,0.48,LWC V2.00 B2112,2013-02-08 15:48:00,
2013-02-08 10:54:00,40.6,39.3,29.78,North,0,0.0,4.0,95,0.00,,,0.48,LWC V2.00 B2112,2013-02-08 15:54:00,
2013-02-08 10:58:00,40.6,39.0,29.78,NW,311,0.0,0.0,94,0.00,,,0.48,LWC V2.00 B2112,2013-02-08 15:58:00,
2013-02-08 11:03:00,40.9,39.3,29.78,NNW,338,0.0,6.0,94,0.00,,,0.48,LWC V2.00 B2112,2013-02-08 16:03:00,
2013-02-08 11:08:00,41.2,39.3,29.77,WNW,295,0.0,5.0,93,0.00,,,0.48,LWC V2.00 B2112,2013-02-08 16:08:00,
2013-02-08 11:14:00,41.3,39.4,29.77,WNW,301,4.0,4.0,93,0.00,,,0.48,LWC V2.00 B2112,2013-02-08 16:14:00,
2013-02-08 11:18:00,41.6,39.5,29.77,WNW,299,0.0,0.0,92,0.00,,,0.48,LWC V2.00 B2112,2013-02-08 16:18:00,
2013-02-08 11:24:00,42.3,40.4,29.77,NW,311,0.0,0.0,93,0.00,,,0.48,LWC V2.00 B2112,2013-02-08 16:24:00,
2013-02-08 11:28:00,42.9,40.7,29.77,SSW,205,0.0,0.0,92,0.00,,,0.48,LWC V2.00 B2112,2013-02-08 16:28:00,
2013-02-08 11:34:00,43.3,41.1,29.77,WNW,288,0.0,0.0,92,0.00,,,0.48,LWC V2.00 B2112,2013-02-08 16:34:00,
2013-02-08 11:39:00,43.2,39.9,29.77,West,274,2.0,5.0,88,0.00,,,0.48,LWC V2.00 B2112,2013-02-08 16:39:00,
2013-02-08 11:44:00,43.2,39.9,29.77,SW,233,0.0,0.0,88,0.00,,,0.48,LWC V2.00 B2112,2013-02-08 16:44:00,
2013-02-08 11:48:00,43.5,40.2,29.77,WNW,300,0.0,0.0,88,0.00,,,0.48,LWC V2.00 B2112,2013-02-08 16:48:00,
2013-02-08 11:53:00,43.6,40.0,29.76,WNW,292,0.0,7.0,87,0.00,,,0.48,LWC V2.00 B2112,2013-02-08 16:53:00,
2013-02-08 11:59:00,43.8,40.2,29.76,WNW,299,0.0,0.0,87,0.00,,,0.48,LWC V2.00 B2112,2013-02-08 16:59:00,
2013-02-08 12:03:00,44.1,39.9,29.76,NW,306,0.0,0.0,85,0.00,,,0.48,LWC V2.00 B2112,2013-02-08 17:03:00,
2013-02-08 12:09:00,44.3,40.1,29.75,West,270,0.0,0.0,85,0.00,,,0.48,LWC V2.00 B2112,2013-02-08 17:09:00,
2013-02-08 12:13:00,44.9,41.0,29.75,North,1,0.0,4.0,86,0.00,,,0.48,LWC V2.00 B2112,2013-02-08 17:13:00,
2013-02-08 12:19:00,45.4,40.9,29.75,WNW,290,0.0,0.0,84,0.00,,,0.48,LWC V2.00 B2112,2013-02-08 17:19:00,
2013-02-08 12:23:00,46.0,41.7,29.75,WSW,256,0.0,0.0,85,0.00,,,0.48,LWC V2.00 B2112,2013-02-08 17:23:00,
2013-02-08 12:29:00,46.7,41.2,29.75,ENE,64,0.0,0.0,81,0.00,,,0.48,LWC V2.00 B2112,2013-02-08 17:29:00,
2013-02-08 12:33:00,47.1,41.3,29.75,NW,311,0.0,0.0,80,0.00,,,0.48,LWC V2.00 B2112,2013-02-08 17:33:00,
2013-02-08 12:38:00,47.3,41.4,29.73,NW,307,0.0,0.0,80,0.00,,,0.48,LWC V2.00 B2112,2013-02-08 17:38:00,
2013-02-08 12:43:00,47.6,41.4,29.73,West,277,0.0,0.0,79,0.00,,,0.48,LWC V2.00 B2112,2013-02-08 17:43:00,
2013-02-08 12:48:00,48.0,41.1,29.73,WNW,294,0.0,0.0,77,0.00,,,0.48,LWC V2.00 B2112,2013-02-08 17:48:00,
2013-02-08 12:53:00,47.9,40.7,29.73,West,269,0.0,3.0,76,0.00,,,0.48,LWC V2.00 B2112,2013-02-08 17:53:00,
2013-02-08 12:58:00,48.5,42.0,29.73,SW,223,4.0,5.0,78,0.00,,,0.48,LWC V2.00 B2112,2013-02-08 17:58:00,
2013-02-08 13:03:00,49.1,41.5,29.73,West,264,0.0,2.0,75,0.00,,,0.48,LWC V2.00 B2112,2013-02-08 18:03:00,
2013-02-08 13:08:00,48.9,42.0,29.73,NE,46,0.0,3.0,77,0.00,,,0.48,LWC V2.00 B2112,2013-02-08 18:08:00,
2013-02-08 13:13:00,49.2,42.0,29.73,WNW,294,0.0,0.0,76,0.00,,,0.48,LWC V2.00 B2112,2013-02-08 18:13:00,
2013-02-08 13:18:00,49.4,41.5,29.73,WNW,297,0.0,0.0,74,0.00,,,0.48,LWC V2.00 B2112,2013-02-08 18:18:00,
2013-02-08 13:24:00,49.8,42.2,29.73,WSW,238,0.0,0.0,75,0.00,,,0.48,LWC V2.00 B2112,2013-02-08 18:24:00,
2013-02-08 13:29:00,50.5,42.2,29.73,SW,220,3.0,6.0,73,0.00,,,0.48,LWC V2.00 B2112,2013-02-08 18:29:00,
2013-02-08 13:33:00,51.6,43.6,29.73,South,184,0.0,0.0,74,0.00,,,0.48,LWC V2.00 B2112,2013-02-08 18:33:00,
2013-02-08 13:39:00,51.7,43.0,29.72,WSW,241,0.0,0.0,72,0.00,,,0.48,LWC V2.00 B2112,2013-02-08 18:39:00,
2013-02-08 13:44:00,51.6,42.9,29.72,NNW,333,0.0,0.0,72,0.00,,,0.48,LWC V2.00 B2112,2013-02-08 18:44:00,
2013-02-08 13:48:00,51.6,43.6,29.72,West,261,0.0,0.0,74,0.00,,,0.48,LWC V2.00 B2112,2013-02-08 18:48:00,
2013-02-08 13:53:00,51.9,43.2,29.72,WSW,240,0.0,3.0,72,0.00,,,0.48,LWC V2.00 B2112,2013-02-08 18:53:00,
2013-02-08 13:59:00,51.9,43.5,29.72,WSW,247,0.0,3.0,73,0.00,,,0.48,LWC V2.00 B2112,2013-02-08 18:59:00,
2013-02-08 14:03:00,51.7,43.0,29.72,West,262,0.0,12.0,72,0.00,,,0.48,LWC V2.00 B2112,2013-02-08 19:03:00,
2013-02-08 14:08:00,51.9,43.5,29.72,West,278,0.0,4.0,73,0.00,,,0.48,LWC V2.00 B2112,2013-02-08 19:08:00,
2013-02-08 14:13:00,52.5,43.4,29.72,SSW,207,0.0,0.0,71,0.00,,,0.48,LWC V2.00 B2112,2013-02-08 19:13:00,
2013-02-08 14:18:00,52.8,43.3,29.72,NW,316,0.0,0.0,70,0.00,,,0.48,LWC V2.00 B2112,2013-02-08 19:18:00,
2013-02-08 14:23:00,52.6,43.5,29.72,WSW,256,0.0,0.0,71,0.00,,,0.48,LWC V2.00 B2112,2013-02-08 19:23:00,
2013-02-08 14:28:00,52.9,43.4,29.72,NW,311,0.0,0.0,70,0.00,,,0.48,LWC V2.00 B2112,2013-02-08 19:28:00,
2013-02-08 14:33:00,53.3,43.8,29.72,West,274,0.0,0.0,70,0.00,,,0.48,LWC V2.00 B2112,2013-02-08 19:33:00,
2013-02-08 14:38:00,53.2,43.7,29.72,West,273,0.0,0.0,70,0.00,,,0.48,LWC V2.00 B2112,2013-02-08 19:38:00,
2013-02-08 14:43:00,53.1,43.2,29.72,WNW,297,0.0,0.0,69,0.00,,,0.48,LWC V2.00 B2112,2013-02-08 19:43:00,
2013-02-08 14:48:00,53.1,43.6,29.72,West,262,0.0,0.0,70,0.00,,,0.48,LWC V2.00 B2112,2013-02-08 19:48:00,
2013-02-08 14:53:00,53.3,43.8,29.71,SW,233,2.0,2.0,70,0.00,,,0.48,LWC V2.00 B2112,2013-02-08 19:53:00,
2013-02-08 14:58:00,53.3,43.0,29.71,West,261,2.0,10.0,68,0.00,,,0.48,LWC V2.00 B2112,2013-02-08 19:58:00,
2013-02-08 15:03:00,53.5,43.2,29.71,NW,319,1.0,1.0,68,0.00,,,0.48,LWC V2.00 B2112,2013-02-08 20:03:00,
2013-02-08 15:08:00,53.6,43.7,29.72,North,1,0.0,0.0,69,0.00,,,0.48,LWC V2.00 B2112,2013-02-08 20:08:00,
2013-02-08 15:13:00,53.3,43.8,29.72,West,262,0.0,6.0,70,0.00,,,0.48,LWC V2.00 B2112,2013-02-08 20:13:00,
2013-02-08 15:18:00,52.9,43.4,29.72,North,1,0.0,0.0,70,0.00,,,0.48,LWC V2.00 B2112,2013-02-08 20:18:00,
2013-02-08 15:23:00,52.6,43.5,29.72,SW,231,2.0,5.0,71,0.00,,,0.48,LWC V2.00 B2112,2013-02-08 20:23:00,
2013-02-08 15:29:00,52.3,43.2,29.72,NNE,18,0.0,0.0,71,0.00,,,0.48,LWC V2.00 B2112,2013-02-08 20:29:00,
2013-02-08 15:38:00,52.2,44.2,29.72,WSW,243,0.0,0.0,74,0.00,,,0.48,LWC V2.00 B2112,2013-02-08 20:38:00,
2013-02-08 15:43:00,52.3,43.9,29.72,SSW,207,0.0,0.0,73,0.00,,,0.48,LWC V2.00 B2112,2013-02-08 20:43:00,
2013-02-08 15:49:00,52.5,43.7,29.72,WNW,301,0.0,0.0,72,0.00,,,0.48,LWC V2.00 B2112,2013-02-08 20:49:00,
2013-02-08 15:58:00,52.5,43.7,29.72,NW,305,0.0,0.0,72,0.00,,,0.48,LWC V2.00 B2112,2013-02-08 20:58:00,
2013-02-08 16:03:00,52.6,43.1,29.72,NNW,330,0.0,3.0,70,0.00,,,0.48,LWC V2.00 B2112,2013-02-08 21:03:00,
2013-02-08 16:08:00,52.8,43.7,29.72,North,9,0.0,0.0,71,0.00,,,0.48,LWC V2.00 B2112,2013-02-08 21:08:00,
2013-02-08 16:13:00,52.6,43.5,29.72,WSW,239,0.0,4.0,71,0.00,,,0.48,LWC V2.00 B2112,2013-02-08 21:13:00,
2013-02-08 16:18:00,52.5,43.4,29.72,North,1,0.0,0.0,71,0.00,,,0.48,LWC V2.00 B2112,2013-02-08 21:18:00,
2013-02-08 16:23:00,52.6,43.5,29.72,West,263,0.0,4.0,71,0.00,,,0.48,LWC V2.00 B2112,2013-02-08 21:23:00,
2013-02-08 16:28:00,53.1,43.9,29.72,WNW,286,0.0,0.0,71,0.00,,,0.48,LWC V2.00 B2112,2013-02-08 21:28:00,
2013-02-08 16:33:00,53.2,43.7,29.72,WNW,283,0.0,0.0,70,0.00,,,0.48,LWC V2.00 B2112,2013-02-08 21:33:00,
2013-02-08 16:38:00,53.1,43.6,29.73,SW,216,0.0,0.0,70,0.00,,,0.48,LWC V2.00 B2112,2013-02-08 21:38:00,
2013-02-08 16:43:00,52.8,44.0,29.73,North,0,0.0,0.0,72,0.00,,,0.48,LWC V2.00 B2112,2013-02-08 21:43:00,
2013-02-08 16:48:00,52.5,43.7,29.73,North,6,0.0,0.0,72,0.00,,,0.48,LWC V2.00 B2112,2013-02-08 21:48:00,
2013-02-08 16:53:00,52.5,43.7,29.73,ESE,115,0.0,0.0,72,0.00,,,0.48,LWC V2.00 B2112,2013-02-08 21:53:00,
2013-02-08 16:58:00,52.5,43.7,29.73,North,5,0.0,0.0,72,0.00,,,0.48,LWC V2.00 B2112,2013-02-08 21:58:00,
2013-02-08 17:03:00,52.8,43.7,29.73,West,266,0.0,3.0,71,0.00,,,0.48,LWC V2.00 B2112,2013-02-08 22:03:00,
2013-02-08 17:08:00,52.8,43.7,29.73,SW,234,0.0,0.0,71,0.00,,,0.48,LWC V2.00 B2112,2013-02-08 22:08:00,
2013-02-08 17:13:00,52.6,43.5,29.73,West,269,0.0,0.0,71,0.00,,,0.48,LWC V2.00 B2112,2013-02-08 22:13:00,
2013-02-08 17:18:00,52.3,43.5,29.73,WNW,283,0.0,0.0,72,0.00,,,0.48,LWC V2.00 B2112,2013-02-08 22:18:00,
2013-02-08 17:23:00,51.7,43.7,29.74,WNW,283,0.0,0.0,74,0.00,,,0.48,LWC V2.00 B2112,2013-02-08 22:23:00,
2013-02-08 17:28:00,51.4,43.7,29.74,WNW,302,0.0,0.0,75,0.00,,,0.48,LWC V2.00 B2112,2013-02-08 22:28:00,
2013-02-08 17:33:00,51.0,43.4,29.74,WNW,302,0.0,0.0,75,0.00,,,0.48,LWC V2.00 B2112,2013-02-08 22:33:00,
2013-02-08 17:38:00,50.4,43.5,29.75,WNW,302,0.0,0.0,77,0.00,,,0.48,LWC V2.00 B2112,2013-02-08 22:38:00,
2013-02-08 17:43:00,50.1,43.2,29.75,WNW,302,0.0,0.0,77,0.00,,,0.48,LWC V2.00 B2112,2013-02-08 22:43:00,
2013-02-08 17:48:00,49.8,43.2,29.75,WNW,302,0.0,0.0,78,0.00,,,0.48,LWC V2.00 B2112,2013-02-08 22:48:00,
2013-02-08 17:53:00,49.5,42.9,29.75,WNW,302,0.0,0.0,78,0.00,,,0.48,LWC V2.00 B2112,2013-02-08 22:53:00,
2013-02-08 17:58:00,49.1,42.9,29.75,WNW,302,0.0,0.0,79,0.00,,,0.48,LWC V2.00 B2112,2013-02-08 22:58:00,
2013-02-08 18:03:00,48.8,42.9,29.75,WNW,302,0.0,0.0,80,0.00,,,0.48,LWC V2.00 B2112,2013-02-08 23:03:00,
2013-02-08 18:08:00,48.3,42.7,29.76,WNW,302,0.0,0.0,81,0.00,,,0.48,LWC V2.00 B2112,2013-02-08 23:08:00,
2013-02-08 18:13:00,47.9,42.7,29.76,WNW,302,0.0,0.0,82,0.00,,,0.48,LWC V2.00 B2112,2013-02-08 23:13:00,
2013-02-08 18:18:00,47.4,42.5,29.76,WNW,302,0.0,0.0,83,0.00,,,0.48,LWC V2.00 B2112,2013-02-08 23:18:00,
2013-02-08 18:23:00,47.0,42.4,29.77,WNW,302,0.0,0.0,84,0.00,,,0.48,LWC V2.00 B2112,2013-02-08 23:23:00,
2013-02-08 18:28:00,46.5,42.2,29.77,WNW,302,0.0,0.0,85,0.00,,,0.48,LWC V2.00 B2112,2013-02-08 23:28:00,
2013-02-08 18:33:00,46.2,42.2,29.77,WNW,302,0.0,0.0,86,0.00,,,0.48,LWC V2.00 B2112,2013-02-08 23:33:00,
2013-02-08 18:38:00,46.0,42.3,29.78,WNW,302,0.0,0.0,87,0.00,,,0.48,LWC V2.00 B2112,2013-02-08 23:38:00,
2013-02-08 18:44:00,45.8,42.2,29.78,WNW,302,0.0,0.0,87,0.00,,,0.48,LWC V2.00 B2112,2013-02-08 23:44:00,
2013-02-08 18:48:00,45.5,42.2,29.78,WNW,302,0.0,0.0,88,0.00,,,0.48,LWC V2.00 B2112,2013-02-08 23:48:00,
2013-02-08 18:53:00,45.5,42.4,29.79,WSW,257,0.0,6.0,89,0.00,,,0.48,LWC V2.00 B2112,2013-02-08 23:53:00,
2013-02-08 18:58:00,45.8,42.2,29.79,WNW,291,2.0,2.0,87,0.00,,,0.48,LWC V2.00 B2112,2013-02-08 23:58:00,
2013-02-08 19:03:00,46.5,40.7,29.79,NW,307,0.0,0.0,80,0.00,,,0.48,LWC V2.00 B2112,2013-02-09 00:03:00,
2013-02-08 19:08:00,47.3,39.1,29.80,NW,315,0.0,0.0,73,0.00,,,0.48,LWC V2.00 B2112,2013-02-09 00:08:00,
2013-02-08 19:13:00,47.6,38.3,29.80,NW,318,0.0,0.0,70,0.00,,,0.48,LWC V2.00 B2112,2013-02-09 00:13:00,
2013-02-08 19:18:00,47.7,38.4,29.80,NW,314,0.0,0.0,70,0.00,,,0.48,LWC V2.00 B2112,2013-02-09 00:18:00,
2013-02-08 19:23:00,47.6,37.6,29.81,NW,314,0.0,0.0,68,0.00,,,0.48,LWC V2.00 B2112,2013-02-09 00:23:00,
2013-02-08 19:28:00,47.6,36.8,29.81,NNW,344,0.0,0.0,66,0.00,,,0.48,LWC V2.00 B2112,2013-02-09 00:28:00,
2013-02-08 19:33:00,47.9,34.7,29.81,NNW,333,2.0,13.0,60,0.00,,,0.48,LWC V2.00 B2112,2013-02-09 00:33:00,
2013-02-08 19:38:00,48.0,34.8,29.83,WNW,303,0.0,0.0,60,0.00,,,0.48,LWC V2.00 B2112,2013-02-09 00:38:00,
2013-02-08 19:43:00,47.7,33.7,29.83,NW,309,0.0,5.0,58,0.00,,,0.48,LWC V2.00 B2112,2013-02-09 00:43:00,
2013-02-08 19:48:00,47.4,32.1,29.83,WNW,301,6.0,13.0,55,0.00,,,0.48,LWC V2.00 B2112,2013-02-09 00:48:00,
2013-02-08 19:53:00,47.4,30.7,29.83,WNW,300,0.0,5.0,52,0.00,,,0.48,LWC V2.00 B2112,2013-02-09 00:53:00,
2013-02-08 19:58:00,47.1,30.9,29.83,North,11,1.0,6.0,53,0.00,,,0.48,LWC V2.00 B2112,2013-02-09 00:58:00,
2013-02-08 20:03:00,46.8,30.6,29.83,WSW,242,3.0,6.0,53,0.00,,,0.48,LWC V2.00 B2112,2013-02-09 01:03:00,
2013-02-08 20:08:00,46.5,29.4,29.85,NW,316,0.0,4.0,51,0.00,,,0.48,LWC V2.00 B2112,2013-02-09 01:08:00,
2013-02-08 20:13:00,46.2,29.6,29.85,WNW,302,0.0,5.0,52,0.00,,,0.48,LWC V2.00 B2112,2013-02-09 01:13:00,
2013-02-08 20:18:00,45.8,29.2,29.85,NW,307,2.0,13.0,52,0.00,,,0.48,LWC V2.00 B2112,2013-02-09 01:18:00,
2013-02-08 20:23:00,45.5,29.4,29.86,NW,308,0.0,9.0,53,0.00,,,0.48,LWC V2.00 B2112,2013-02-09 01:23:00,
2013-02-08 20:28:00,45.2,29.1,29.86,NW,304,0.0,10.0,53,0.00,,,0.48,LWC V2.00 B2112,2013-02-09 01:28:00,
2013-02-08 20:33:00,44.9,28.8,29.86,NW,319,0.0,0.0,53,0.00,,,0.48,LWC V2.00 B2112,2013-02-09 01:33:00,
2013-02-08 20:38:00,44.6,29.0,29.88,NW,307,0.0,2.0,54,0.00,,,0.48,LWC V2.00 B2112,2013-02-09 01:38:00,
2013-02-08 20:43:00,44.3,29.2,29.88,NW,322,0.0,3.0,55,0.00,,,0.48,LWC V2.00 B2112,2013-02-09 01:43:00,
2013-02-08 20:48:00,44.2,29.1,29.88,NW,304,0.0,14.0,55,0.00,,,0.48,LWC V2.00 B2112,2013-02-09 01:48:00,
2013-02-08 20:53:00,44.1,29.9,29.88,WNW,294,0.0,4.0,57,0.00,,,0.48,LWC V2.00 B2112,2013-02-09 01:53:00,
2013-02-08 20:58:00,43.9,29.7,29.88,WNW,300,0.0,0.0,57,0.00,,,0.48,LWC V2.00 B2112,2013-02-09 01:58:00,
2013-02-08 21:03:00,43.5,29.3,29.88,North,354,0.0,0.0,57,0.00,,,0.48,LWC V2.00 B2112,2013-02-09 02:03:00,
2013-02-08 21:08:00,43.3,29.1,29.90,NW,308,0.0,4.0,57,0.00,,,0.48,LWC V2.00 B2112,2013-02-09 02:08:00,
2013-02-08 21:13:00,43.3,29.1,29.90,North,1,0.0,5.0,57,0.00,,,0.48,LWC V2.00 B2112,2013-02-09 02:13:00,
2013-02-08 21:18:00,43.2,29.4,29.90,WNW,286,0.0,0.0,58,0.00,,,0.48,LWC V2.00 B2112,2013-02-09 02:18:00,
2013-02-08 21:23:00,43.1,28.9,29.90,North,352,2.0,2.0,57,0.00,,,0.48,LWC V2.00 B2112,2013-02-09 02:23:00,
2013-02-08 21:28:00,43.1,28.9,29.90,NW,323,0.0,1.0,57,0.00,,,0.48,LWC V2.00 B2112,2013-02-09 02:28:00,
2013-02-08 21:33:00,42.8,29.1,29.90,NW,306,0.0,1.0,58,0.00,,,0.48,LWC V2.00 B2112,2013-02-09 02:33:00,
2013-02-08 21:38:00,42.6,28.4,29.90,WNW,290,0.0,1.0,57,0.00,,,0.48,LWC V2.00 B2112,2013-02-09 02:38:00,
2013-02-08 21:43:00,42.5,28.4,29.90,NW,304,0.0,7.0,57,0.00,,,0.48,LWC V2.00 B2112,2013-02-09 02:43:00,
2013-02-08 21:48:00,42.5,28.4,29.90,West,269,0.0,4.0,57,0.00,,,0.48,LWC V2.00 B2112,2013-02-09 02:48:00,
2013-02-08 21:53:00,42.3,28.6,29.92,West,259,0.0,0.0,58,0.00,,,0.48,LWC V2.00 B2112,2013-02-09 02:53:00,
2013-02-08 21:58:00,42.1,28.4,29.92,NW,325,0.0,0.0,58,0.00,,,0.48,LWC V2.00 B2112,2013-02-09 02:58:00,
2013-02-08 22:03:00,41.9,27.8,29.92,West,266,0.0,6.0,57,0.00,,,0.48,LWC V2.00 B2112,2013-02-09 03:03:00,
2013-02-08 22:08:00,41.9,28.2,29.92,WNW,297,0.0,0.0,58,0.00,,,0.48,LWC V2.00 B2112,2013-02-09 03:08:00,
2013-02-08 22:13:00,41.6,27.9,29.92,NW,307,0.0,0.0,58,0.00,,,0.48,LWC V2.00 B2112,2013-02-09 03:13:00,
2013-02-08 22:18:00,41.5,28.3,29.92,WNW,287,0.0,0.0,59,0.00,,,0.48,LWC V2.00 B2112,2013-02-09 03:18:00,
2013-02-08 22:23:00,41.2,28.0,29.93,NW,310,0.0,0.0,59,0.00,,,0.48,LWC V2.00 B2112,2013-02-09 03:23:00,
2013-02-08 22:28:00,40.9,28.5,29.93,WNW,291,0.0,0.0,61,0.00,,,0.48,LWC V2.00 B2112,2013-02-09 03:28:00,
2013-02-08 22:33:00,40.8,28.4,29.93,NW,322,0.0,0.0,61,0.00,,,0.48,LWC V2.00 B2112,2013-02-09 03:33:00,
2013-02-08 22:38:00,40.6,28.2,29.93,NNW,345,0.0,0.0,61,0.00,,,0.48,LWC V2.00 B2112,2013-02-09 03:38:00,
2013-02-08 22:43:00,40.3,28.3,29.93,WNW,297,0.0,0.0,62,0.00,,,0.48,LWC V2.00 B2112,2013-02-09 03:43:00,
2013-02-08 22:49:00,39.9,28.3,29.93,West,266,0.0,0.0,63,0.00,,,0.48,LWC V2.00 B2112,2013-02-09 03:49:00,
2013-02-08 22:53:00,39.6,28.1,29.93,WNW,287,0.0,0.0,63,0.00,,,0.48,LWC V2.00 B2112,2013-02-09 03:53:00,
2013-02-08 22:58:00,39.6,28.1,29.93,SW,220,0.0,0.0,63,0.00,,,0.48,LWC V2.00 B2112,2013-02-09 03:58:00,
2013-02-08 23:04:00,39.5,28.3,29.93,South,189,0.0,0.0,64,0.00,,,0.48,LWC V2.00 B2112,2013-02-09 04:04:00,
2013-02-08 23:08:00,39.3,28.2,29.93,West,271,0.0,0.0,64,0.00,,,0.48,LWC V2.00 B2112,2013-02-09 04:08:00,
2013-02-08 23:13:00,39.3,28.2,29.93,West,273,0.0,0.0,64,0.00,,,0.48,LWC V2.00 B2112,2013-02-09 04:13:00,
2013-02-08 23:18:00,39.3,28.2,29.93,WNW,300,0.0,0.0,64,0.00,,,0.48,LWC V2.00 B2112,2013-02-09 04:18:00,
2013-02-08 23:24:00,39.2,28.4,29.94,WNW,300,0.0,0.0,65,0.00,,,0.48,LWC V2.00 B2112,2013-02-09 04:24:00,
2013-02-08 23:29:00,39.2,28.1,29.94,NW,319,0.0,0.0,64,0.00,,,0.48,LWC V2.00 B2112,2013-02-09 04:29:00,
2013-02-08 23:34:00,39.3,27.8,29.94,NNW,344,0.0,0.0,63,0.00,,,0.48,LWC V2.00 B2112,2013-02-09 04:34:00,
2013-02-08 23:39:00,39.3,27.8,29.94,NNW,335,0.0,0.0,63,0.00,,,0.48,LWC V2.00 B2112,2013-02-09 04:39:00,
2013-02-08 23:44:00,39.2,28.4,29.94,NNW,335,0.0,0.0,65,0.00,,,0.48,LWC V2.00 B2112,2013-02-09 04:44:00,
2013-02-08 23:49:00,38.9,28.2,29.94,NW,326,0.0,0.0,65,0.00,,,0.48,LWC V2.00 B2112,2013-02-09 04:49:00,
2013-02-08 23:54:00,38.8,28.1,29.94,NW,316,0.0,0.0,65,0.00,,,0.48,LWC V2.00 B2112,2013-02-09 04:54:00,
2013-02-08 23:59:00,38.6,28.2,29.94,WNW,290,0.0,0.0,66,0.00,,,0.48,LWC V2.00 B2112,2013-02-09 04:59:00,